,,Stat6,,Stat2,,Stat8,,Stat9,,Stat10,,Wind1,,Wind1,
time,status,PA1M_AVG,status,PR1M_SUM,status,RH1M_AVG,status,SR1M_AVG,status,TA1M_AVG,status,W1dAve1m,status,W1sAve1m,
2005-09-20, 00:00:00,VALID,920.481,VALID,0,VALID,98.0687,VALID,0,VALID,17.5621,VALID,117,VALID,0,
2005-09-20, 00:01:00,VALID,920.472,VALID,0,VALID,98.0661,VALID,0,VALID,17.5242,VALID,117,VALID,0.125182,
2005-09-20, 00:02:00,VALID,920.452,VALID,0,VALID,98.6117,VALID,0,VALID,17.5042,VALID,117,VALID,0.418341,
2005-09-20, 00:03:00,VALID,920.447,VALID,0,VALID,98.5087,VALID,-0.0169808,VALID,17.4782,VALID,123,VALID,0.460007,
2005-09-20, 00:04:00,VALID,920.448,VALID,0,VALID,98.3243,VALID,-0.0169808,VALID,17.4433,VALID,127,VALID,0.499628,
2005-09-20, 00:05:00,VALID,920.438,VALID,0,VALID,98.9677,VALID,-0.0169808,VALID,17.4369,VALID,130,VALID,0.443892,
2005-09-20, 00:06:00,VALID,920.419,VALID,0,VALID,99.2805,VALID,0,VALID,17.4594,VALID,131,VALID,0.433117,
2005-09-20, 00:07:00,VALID,920.413,VALID,0,VALID,99.3721,VALID,0,VALID,17.4788,VALID,154,VALID,0.548874,
2005-09-20, 00:08:00,VALID,920.395,VALID,0,VALID,99.6773,VALID,0,VALID,17.5074,VALID,158,VALID,0.541726,
2005-09-20, 00:09:00,VALID,920.388,VALID,0,VALID,99.925,VALID,-0.0339617,VALID,17.5464,VALID,162,VALID,0.60404,
2005-09-20, 00:10:00,VALID,920.388,VALID,0,VALID,99.9601,VALID,0,VALID,17.5952,VALID,163,VALID,0.552083,
2005-09-20, 00:11:00,VALID,920.377,VALID,0,VALID,99.6938,VALID,-0.0339617,VALID,17.5754,VALID,163,VALID,0.492569,
2005-09-20, 00:12:00,VALID,920.365,VALID,0,VALID,99.7002,VALID,-0.0169808,VALID,17.5724,VALID,163,VALID,0.788504,
2005-09-20, 00:13:00,VALID,920.381,VALID,0,VALID,99.8324,VALID,-0.0169808,VALID,17.569,VALID,163,VALID,0.418139,
2005-09-20, 00:14:00,VALID,920.37,VALID,0,VALID,100,VALID,0,VALID,17.5946,VALID,163,VALID,0.323438,
2005-09-20, 00:15:00,VALID,920.377,VALID,0,VALID,100,VALID,-0.0169808,VALID,17.6467,VALID,163,VALID,0.450994,
2005-09-20, 00:16:00,VALID,920.383,VALID,0,VALID,100,VALID,-0.0339617,VALID,17.6755,VALID,163,VALID,0.263445,
2005-09-20, 00:17:00,VALID,920.355,VALID,0,VALID,99.9687,VALID,-0.0169808,VALID,17.6981,VALID,163,VALID,0.273619,
2005-09-20, 00:18:00,VALID,920.336,VALID,0,VALID,99.868,VALID,-0.0169808,VALID,17.6914,VALID,163,VALID,0.410714,
2005-09-20, 00:19:00,VALID,920.287,VALID,0,VALID,99.8349,VALID,0,VALID,17.7237,VALID,163,VALID,0.677257,
2005-09-20, 00:20:00,VALID,920.263,VALID,0,VALID,99.6684,VALID,-0.0169808,VALID,17.7467,VALID,151,VALID,0.523438,
2005-09-20, 00:21:00,VALID,920.25,VALID,0,VALID,99.517,VALID,-0.0339617,VALID,17.7465,VALID,143,VALID,0.222561,
2005-09-20, 00:22:00,VALID,920.255,VALID,0,VALID,98.9385,VALID,-0.0339617,VALID,17.7555,VALID,143,VALID,0.499628,
2005-09-20, 00:23:00,VALID,920.274,VALID,0,VALID,98.4959,VALID,0,VALID,17.7592,VALID,149,VALID,0.519622,
2005-09-20, 00:24:00,VALID,920.284,VALID,0,VALID,98.3408,VALID,0,VALID,17.7497,VALID,166,VALID,0.56764,
2005-09-20, 00:25:00,VALID,920.287,VALID,0,VALID,98.0547,VALID,0,VALID,17.7527,VALID,168,VALID,0.531072,
2005-09-20, 00:26:00,VALID,920.272,VALID,0,VALID,97.5715,VALID,0,VALID,17.7751,VALID,168,VALID,0.496875,
2005-09-20, 00:27:00,VALID,920.253,VALID,0,VALID,96.7437,VALID,0.0169808,VALID,17.7846,VALID,168,VALID,0.364281,
2005-09-20, 00:28:00,VALID,920.251,VALID,0,VALID,96.1829,VALID,-0.0169808,VALID,17.7654,VALID,168,VALID,0.446584,
2005-09-20, 00:29:00,VALID,920.25,VALID,0,VALID,96.5466,VALID,-0.0339617,VALID,17.7274,VALID,168,VALID,0.449591,
2005-09-20, 00:30:00,VALID,920.25,VALID,0,VALID,96.6178,VALID,0,VALID,17.6921,VALID,168,VALID,0.405107,
2005-09-20, 00:31:00,VALID,920.232,VALID,0,VALID,96.4766,VALID,0,VALID,17.6591,VALID,169,VALID,0.701791,
2005-09-20, 00:32:00,VALID,920.241,VALID,0,VALID,96.4499,VALID,-0.0169808,VALID,17.6792,VALID,168,VALID,0.725497,
2005-09-20, 00:33:00,VALID,920.225,VALID,0,VALID,96.0214,VALID,0,VALID,17.7015,VALID,164,VALID,0.652158,
2005-09-20, 00:34:00,VALID,920.233,VALID,0,VALID,95.9489,VALID,-0.0169808,VALID,17.7048,VALID,164,VALID,0.550977,
2005-09-20, 00:35:00,VALID,920.233,VALID,0,VALID,96.0939,VALID,0,VALID,17.7207,VALID,164,VALID,0.431141,
2005-09-20, 00:36:00,VALID,920.228,VALID,0,VALID,95.9807,VALID,-0.0169808,VALID,17.7626,VALID,164,VALID,0.435785,
2005-09-20, 00:37:00,VALID,920.207,VALID,0,VALID,96.146,VALID,0,VALID,17.7947,VALID,164,VALID,0.580664,
2005-09-20, 00:38:00,VALID,920.177,VALID,0,VALID,96.6178,VALID,-0.0339617,VALID,17.8595,VALID,164,VALID,0.601393,
2005-09-20, 00:39:00,VALID,920.157,VALID,0,VALID,96.4754,VALID,0,VALID,17.8982,VALID,164,VALID,0.713663,
2005-09-20, 00:40:00,VALID,920.13,VALID,0,VALID,96.6559,VALID,-0.0339617,VALID,17.9044,VALID,164,VALID,0.527798,
2005-09-20, 00:41:00,VALID,920.105,VALID,0,VALID,96.8899,VALID,0,VALID,17.8885,VALID,158,VALID,0.371271,
2005-09-20, 00:42:00,VALID,920.108,VALID,0,VALID,96.9497,VALID,-0.0339617,VALID,17.9116,VALID,157,VALID,0.426153,
2005-09-20, 00:43:00,VALID,920.103,VALID,0,VALID,97.0832,VALID,0,VALID,17.9148,VALID,157,VALID,0.35973,
2005-09-20, 00:44:00,VALID,920.096,VALID,0,VALID,97.1341,VALID,-0.0339617,VALID,17.9017,VALID,157,VALID,0.491616,
2005-09-20, 00:45:00,VALID,920.091,VALID,0,VALID,97.2345,VALID,-0.0169808,VALID,17.8823,VALID,157,VALID,0.63141,
2005-09-20, 00:46:00,VALID,920.093,VALID,0,VALID,97.2027,VALID,-0.0679233,VALID,17.8505,VALID,157,VALID,0.721608,
2005-09-20, 00:47:00,VALID,920.096,VALID,0,VALID,97.2765,VALID,-0.0849042,VALID,17.7988,VALID,157,VALID,0.716264,
2005-09-20, 00:48:00,VALID,920.089,VALID,0,VALID,97.4952,VALID,-0.0679233,VALID,17.7405,VALID,157,VALID,0.717797,
2005-09-20, 00:49:00,VALID,920.083,VALID,0,VALID,97.6414,VALID,-0.0849042,VALID,17.7024,VALID,157,VALID,0.637463,
2005-09-20, 00:50:00,VALID,920.077,VALID,0,VALID,97.6758,VALID,-0.0509425,VALID,17.6473,VALID,152,VALID,0.620164,
2005-09-20, 00:51:00,VALID,920.076,VALID,0,VALID,97.7826,VALID,-0.0679233,VALID,17.615,VALID,145,VALID,0.538876,
2005-09-20, 00:52:00,VALID,920.084,VALID,0,VALID,97.8856,VALID,-0.0679233,VALID,17.5957,VALID,145,VALID,0.411156,
2005-09-20, 00:53:00,VALID,920.086,VALID,0,VALID,97.8118,VALID,-0.0679233,VALID,17.6118,VALID,145,VALID,0.348758,
2005-09-20, 00:54:00,VALID,920.069,VALID,0,VALID,97.1951,VALID,-0.101885,VALID,17.7029,VALID,145,VALID,0.40067,
2005-09-20, 00:55:00,VALID,920.052,VALID,0,VALID,96.3215,VALID,-0.101885,VALID,17.7896,VALID,145,VALID,0.402248,
2005-09-20, 00:56:00,VALID,920.04,VALID,0,VALID,95.0779,VALID,-0.0849042,VALID,17.8888,VALID,145,VALID,0.356827,
2005-09-20, 00:57:00,VALID,920.009,VALID,0,VALID,93.805,VALID,-0.0679233,VALID,18.0377,VALID,145,VALID,0.2413,
2005-09-20, 00:58:00,VALID,919.978,VALID,0,VALID,92.7699,VALID,-0.0339617,VALID,18.1828,VALID,145,VALID,0.0555959,
2005-09-20, 00:59:00,VALID,919.945,VALID,0,VALID,91.7196,VALID,-0.0339617,VALID,18.3387,VALID,145,VALID,0,
2005-09-20, 01:00:00,VALID,919.922,VALID,0,VALID,90.7201,VALID,-0.0679233,VALID,18.4803,VALID,145,VALID,0,
2005-09-20, 01:01:00,VALID,919.92,VALID,0,VALID,90.5929,VALID,-0.0339617,VALID,18.6285,VALID,145,VALID,0,
2005-09-20, 01:02:00,VALID,919.924,VALID,0,VALID,90.2407,VALID,-0.0679233,VALID,18.7093,VALID,145,VALID,0,
2005-09-20, 01:03:00,VALID,919.925,VALID,0,VALID,89.8071,VALID,-0.0679233,VALID,18.7483,VALID,145,VALID,0,
2005-09-20, 01:04:00,VALID,919.937,VALID,0,VALID,89.5006,VALID,-0.0679233,VALID,18.7639,VALID,145,VALID,0,
2005-09-20, 01:05:00,VALID,919.944,VALID,0,VALID,89.7346,VALID,-0.0849042,VALID,18.7902,VALID,145,VALID,0,
2005-09-20, 01:06:00,VALID,919.948,VALID,0,VALID,90.022,VALID,-0.0849042,VALID,18.7902,VALID,145,VALID,0,
2005-09-20, 01:07:00,VALID,919.933,VALID,0,VALID,90.4225,VALID,-0.101885,VALID,18.7515,VALID,145,VALID,0.0565476,
2005-09-20, 01:08:00,VALID,919.915,VALID,0,VALID,91.0329,VALID,-0.101885,VALID,18.6611,VALID,145,VALID,0.347752,
2005-09-20, 01:09:00,VALID,919.894,VALID,0,VALID,91.6306,VALID,-0.0849042,VALID,18.5312,VALID,145,VALID,0.502418,
2005-09-20, 01:10:00,VALID,919.884,VALID,0,VALID,92.3795,VALID,-0.0679233,VALID,18.4189,VALID,143,VALID,0.478016,
2005-09-20, 01:11:00,VALID,919.864,VALID,0,VALID,93.3803,VALID,-0.101885,VALID,18.296,VALID,140,VALID,0.522195,
2005-09-20, 01:12:00,VALID,919.839,VALID,0,VALID,93.7681,VALID,-0.0849042,VALID,18.1597,VALID,132,VALID,0.456364,
2005-09-20, 01:13:00,VALID,919.827,VALID,0,VALID,93.8889,VALID,-0.0509425,VALID,18.0569,VALID,124,VALID,0.488782,
2005-09-20, 01:14:00,VALID,919.833,VALID,0,VALID,93.9538,VALID,-0.101885,VALID,17.9252,VALID,105,VALID,0.655859,
2005-09-20, 01:15:00,VALID,919.842,VALID,0,VALID,96.1778,VALID,-0.0849042,VALID,17.8502,VALID,91,VALID,0.843576,
2005-09-20, 01:16:00,VALID,919.831,VALID,0,VALID,96.6712,VALID,-0.0169808,VALID,17.8493,VALID,91,VALID,0.601381,
2005-09-20, 01:17:00,VALID,919.801,VALID,0,VALID,96.8657,VALID,0.0169808,VALID,17.862,VALID,91,VALID,0.515443,
2005-09-20, 01:18:00,VALID,919.788,VALID,0,VALID,96.6763,VALID,0.0509425,VALID,17.865,VALID,91,VALID,0.604106,
2005-09-20, 01:19:00,VALID,919.779,VALID,0,VALID,96.216,VALID,0.0339617,VALID,17.8302,VALID,107,VALID,0.64375,
2005-09-20, 01:20:00,VALID,919.768,VALID,0,VALID,96.3355,VALID,0.0169808,VALID,17.7587,VALID,113,VALID,0.586939,
2005-09-20, 01:21:00,VALID,919.758,VALID,0,VALID,96.778,VALID,0.0339617,VALID,17.7,VALID,114,VALID,0.676781,
2005-09-20, 01:22:00,VALID,919.749,VALID,0,VALID,97.0972,VALID,0.0679233,VALID,17.6746,VALID,114,VALID,0.729833,
2005-09-20, 01:23:00,VALID,919.734,VALID,0,VALID,97.3223,VALID,0.0679233,VALID,17.6649,VALID,116,VALID,0.671689,
2005-09-20, 01:24:00,VALID,919.721,VALID,0,VALID,97.5753,VALID,0.0509425,VALID,17.6555,VALID,134,VALID,0.803977,
2005-09-20, 01:25:00,VALID,919.73,VALID,0,VALID,97.9428,VALID,0.0169808,VALID,17.6455,VALID,133,VALID,1.04185,
2005-09-20, 01:26:00,VALID,919.725,VALID,0,VALID,98.351,VALID,0.0169808,VALID,17.6585,VALID,132,VALID,1.15681,
2005-09-20, 01:27:00,VALID,919.724,VALID,0,VALID,98.5023,VALID,0.0169808,VALID,17.6813,VALID,132,VALID,1.08066,
2005-09-20, 01:28:00,VALID,919.717,VALID,0,VALID,98.3612,VALID,0.0339617,VALID,17.7039,VALID,131,VALID,0.785764,
2005-09-20, 01:29:00,VALID,919.703,VALID,0,VALID,98.22,VALID,0.0339617,VALID,17.7103,VALID,131,VALID,0.607617,
2005-09-20, 01:30:00,VALID,919.7,VALID,0,VALID,97.925,VALID,0.0679233,VALID,17.7036,VALID,127,VALID,0.587936,
2005-09-20, 01:31:00,VALID,919.673,VALID,0,VALID,98.0038,VALID,0.0509425,VALID,17.6944,VALID,122,VALID,0.706759,
2005-09-20, 01:32:00,VALID,919.654,VALID,0,VALID,98.1641,VALID,0.0169808,VALID,17.6974,VALID,115,VALID,0.857955,
2005-09-20, 01:33:00,VALID,919.618,VALID,0,VALID,98.1564,VALID,0.0169808,VALID,17.7036,VALID,119,VALID,0.817187,
2005-09-20, 01:34:00,VALID,919.582,VALID,0,VALID,98.0992,VALID,0.0339617,VALID,17.7202,VALID,132,VALID,0.924414,
2005-09-20, 01:35:00,VALID,919.561,VALID,0,VALID,98.0293,VALID,0.0509425,VALID,17.7168,VALID,130,VALID,0.948317,
2005-09-20, 01:36:00,VALID,919.55,VALID,0,VALID,97.8385,VALID,0.0169808,VALID,17.7097,VALID,126,VALID,0.774926,
2005-09-20, 01:37:00,VALID,919.524,VALID,0,VALID,97.7139,VALID,0.0679233,VALID,17.7136,VALID,124,VALID,0.585938,
2005-09-20, 01:38:00,VALID,919.518,VALID,0,VALID,97.7546,VALID,0,VALID,17.7075,VALID,122,VALID,0.780342,
2005-09-20, 01:39:00,VALID,919.502,VALID,0,VALID,97.6402,VALID,0.0679233,VALID,17.7034,VALID,114,VALID,0.675509,
2005-09-20, 01:40:00,VALID,919.491,VALID,0,VALID,97.3896,VALID,0.0169808,VALID,17.7133,VALID,111,VALID,0.75293,
2005-09-20, 01:41:00,VALID,919.484,VALID,0,VALID,97.1163,VALID,0.0169808,VALID,17.7327,VALID,114,VALID,0.813021,
2005-09-20, 01:42:00,VALID,919.483,VALID,0,VALID,96.8505,VALID,0.0679233,VALID,17.7516,VALID,116,VALID,0.668899,
2005-09-20, 01:43:00,VALID,919.485,VALID,0,VALID,96.5453,VALID,0.0679233,VALID,17.7807,VALID,116,VALID,0.620164,
2005-09-20, 01:44:00,VALID,919.488,VALID,0,VALID,96.3228,VALID,0,VALID,17.7973,VALID,116,VALID,0.711632,
2005-09-20, 01:45:00,VALID,919.479,VALID,0,VALID,96.2668,VALID,0.0509425,VALID,17.7878,VALID,111,VALID,0.781424,
2005-09-20, 01:46:00,VALID,919.48,VALID,0,VALID,96.2973,VALID,0,VALID,17.7719,VALID,111,VALID,0.652798,
2005-09-20, 01:47:00,VALID,919.477,VALID,0,VALID,96.3075,VALID,0,VALID,17.7456,VALID,111,VALID,0.417019,
2005-09-20, 01:48:00,VALID,919.49,VALID,0,VALID,96.4169,VALID,0,VALID,17.7426,VALID,114,VALID,0.547619,
2005-09-20, 01:49:00,VALID,919.48,VALID,0,VALID,96.2757,VALID,0.0169808,VALID,17.7297,VALID,119,VALID,0.641715,
2005-09-20, 01:50:00,VALID,919.473,VALID,0,VALID,96.3558,VALID,0.0169808,VALID,17.7301,VALID,119,VALID,0.658482,
2005-09-20, 01:51:00,VALID,919.453,VALID,0,VALID,96.1041,VALID,0.0169808,VALID,17.7426,VALID,118,VALID,0.589666,
2005-09-20, 01:52:00,VALID,919.436,VALID,0,VALID,96.0074,VALID,0.0169808,VALID,17.7557,VALID,113,VALID,0.696514,
2005-09-20, 01:53:00,VALID,919.408,VALID,0,VALID,96.0163,VALID,0,VALID,17.7684,VALID,113,VALID,0.656641,
2005-09-20, 01:54:00,VALID,919.392,VALID,0,VALID,95.9235,VALID,0,VALID,17.7942,VALID,113,VALID,0.638889,
2005-09-20, 01:55:00,VALID,919.373,VALID,0,VALID,95.7811,VALID,0.0169808,VALID,17.7813,VALID,113,VALID,0.617788,
2005-09-20, 01:56:00,VALID,919.374,VALID,0,VALID,95.7722,VALID,0.0169808,VALID,17.7846,VALID,113,VALID,0.632813,
2005-09-20, 01:57:00,VALID,919.368,VALID,0,VALID,95.7048,VALID,0,VALID,17.7585,VALID,108,VALID,0.536156,
2005-09-20, 01:58:00,VALID,919.362,VALID,0,VALID,95.706,VALID,0.0169808,VALID,17.7495,VALID,108,VALID,0.372656,
2005-09-20, 01:59:00,VALID,919.366,VALID,0,VALID,95.6577,VALID,0,VALID,17.7202,VALID,108,VALID,0.496189,
2005-09-20, 02:00:00,VALID,919.358,VALID,0,VALID,95.7582,VALID,0,VALID,17.6845,VALID,108,VALID,0.499814,
2005-09-20, 02:01:00,VALID,919.359,VALID,0,VALID,95.879,VALID,0,VALID,17.6591,VALID,108,VALID,0.44436,
2005-09-20, 02:02:00,VALID,919.353,VALID,0,VALID,96.1511,VALID,0.0169808,VALID,17.643,VALID,108,VALID,0.633539,
2005-09-20, 02:03:00,VALID,919.344,VALID,0,VALID,96.132,VALID,0,VALID,17.646,VALID,108,VALID,0.701791,
2005-09-20, 02:04:00,VALID,919.338,VALID,0,VALID,95.7277,VALID,0,VALID,17.6236,VALID,117,VALID,0.642531,
2005-09-20, 02:05:00,VALID,919.332,VALID,0,VALID,96.146,VALID,0.0169808,VALID,17.5881,VALID,128,VALID,0.884673,
2005-09-20, 02:06:00,VALID,919.317,VALID,0,VALID,96.2579,VALID,0,VALID,17.5976,VALID,115,VALID,0.842416,
2005-09-20, 02:07:00,VALID,919.319,VALID,0,VALID,95.9985,VALID,0,VALID,17.6425,VALID,117,VALID,0.689918,
2005-09-20, 02:08:00,VALID,919.312,VALID,0,VALID,95.6119,VALID,0,VALID,17.6976,VALID,117,VALID,0.66424,
2005-09-20, 02:09:00,VALID,919.305,VALID,0,VALID,95.2648,VALID,0,VALID,17.7426,VALID,117,VALID,0.576637,
2005-09-20, 02:10:00,VALID,919.304,VALID,0,VALID,94.8719,VALID,0,VALID,17.7721,VALID,117,VALID,0.499637,
2005-09-20, 02:11:00,VALID,919.292,VALID,0,VALID,94.91,VALID,0,VALID,17.7656,VALID,130,VALID,0.663889,
2005-09-20, 02:12:00,VALID,919.286,VALID,0,VALID,94.9787,VALID,0.0169808,VALID,17.7753,VALID,131,VALID,0.475038,
2005-09-20, 02:13:00,VALID,919.27,VALID,0,VALID,95.1898,VALID,0.0169808,VALID,17.762,VALID,120,VALID,0.577009,
2005-09-20, 02:14:00,VALID,919.255,VALID,0,VALID,95.3258,VALID,0,VALID,17.7816,VALID,104,VALID,0.710764,
2005-09-20, 02:15:00,VALID,919.251,VALID,0,VALID,95.1478,VALID,0,VALID,17.8263,VALID,104,VALID,0.802912,
2005-09-20, 02:16:00,VALID,919.242,VALID,0,VALID,94.8172,VALID,0.0169808,VALID,17.8885,VALID,104,VALID,0.774528,
2005-09-20, 02:17:00,VALID,919.245,VALID,0,VALID,94.5641,VALID,0.0169808,VALID,17.8851,VALID,104,VALID,0.542683,
2005-09-20, 02:18:00,VALID,919.229,VALID,0,VALID,94.6493,VALID,0.0169808,VALID,17.859,VALID,104,VALID,0.478981,
2005-09-20, 02:19:00,VALID,919.217,VALID,0,VALID,94.8909,VALID,0,VALID,17.833,VALID,105,VALID,0.625694,
2005-09-20, 02:20:00,VALID,919.206,VALID,0,VALID,94.9876,VALID,0,VALID,17.7977,VALID,117,VALID,0.675604,
2005-09-20, 02:21:00,VALID,919.199,VALID,0,VALID,95.1008,VALID,0.0169808,VALID,17.7652,VALID,118,VALID,0.777249,
2005-09-20, 02:22:00,VALID,919.179,VALID,0,VALID,95.0524,VALID,0.0169808,VALID,17.7398,VALID,134,VALID,0.634487,
2005-09-20, 02:23:00,VALID,919.191,VALID,0,VALID,95.1821,VALID,0,VALID,17.6979,VALID,140,VALID,0.913154,
2005-09-20, 02:24:00,VALID,919.187,VALID,0,VALID,95.2928,VALID,0,VALID,17.6852,VALID,132,VALID,0.876172,
2005-09-20, 02:25:00,VALID,919.188,VALID,0,VALID,95.1313,VALID,0,VALID,17.6789,VALID,135,VALID,0.560192,
2005-09-20, 02:26:00,VALID,919.189,VALID,0,VALID,95.0804,VALID,-0.0169808,VALID,17.6361,VALID,130,VALID,0.592035,
2005-09-20, 02:27:00,VALID,919.205,VALID,0,VALID,95.3246,VALID,0,VALID,17.6303,VALID,131,VALID,0.556141,
2005-09-20, 02:28:00,VALID,919.232,VALID,0,VALID,95.4619,VALID,0,VALID,17.6047,VALID,131,VALID,0.445313,
2005-09-20, 02:29:00,VALID,919.23,VALID,0,VALID,95.556,VALID,0,VALID,17.6015,VALID,126,VALID,0.60119,
2005-09-20, 02:30:00,VALID,919.223,VALID,0,VALID,95.2851,VALID,-0.0169808,VALID,17.5849,VALID,123,VALID,0.29633,
2005-09-20, 02:31:00,VALID,919.214,VALID,0,VALID,95.2521,VALID,0.0679233,VALID,17.5577,VALID,108,VALID,0.554688,
2005-09-20, 02:32:00,VALID,919.203,VALID,0,VALID,95.2584,VALID,0.101885,VALID,17.5481,VALID,92,VALID,0.598189,
2005-09-20, 02:33:00,VALID,919.198,VALID,0,VALID,94.4866,VALID,0.101885,VALID,17.4607,VALID,77,VALID,0.53468,
2005-09-20, 02:34:00,VALID,919.19,VALID,0,VALID,95.0728,VALID,0.101885,VALID,17.3901,VALID,77,VALID,0.436942,
2005-09-20, 02:35:00,VALID,919.167,VALID,0,VALID,95.7582,VALID,0.101885,VALID,17.3419,VALID,77,VALID,0.259448,
2005-09-20, 02:36:00,VALID,919.143,VALID,0,VALID,96.5657,VALID,0.118866,VALID,17.3221,VALID,82,VALID,0.560192,
2005-09-20, 02:37:00,VALID,919.142,VALID,0,VALID,96.7564,VALID,0.101885,VALID,17.3962,VALID,97,VALID,0.803199,
2005-09-20, 02:38:00,VALID,919.138,VALID,0,VALID,96.0112,VALID,0.101885,VALID,17.5418,VALID,102,VALID,0.922385,
2005-09-20, 02:39:00,VALID,919.143,VALID,0,VALID,95.1516,VALID,0.0849042,VALID,17.6417,VALID,112,VALID,0.710175,
2005-09-20, 02:40:00,VALID,919.169,VALID,0,VALID,94.7155,VALID,0.118866,VALID,17.6645,VALID,115,VALID,0.353051,
2005-09-20, 02:41:00,VALID,919.188,VALID,0,VALID,94.5311,VALID,0.118866,VALID,17.658,VALID,115,VALID,0.498242,
2005-09-20, 02:42:00,VALID,919.211,VALID,0,VALID,94.821,VALID,0.135847,VALID,17.599,VALID,115,VALID,0.517624,
2005-09-20, 02:43:00,VALID,919.216,VALID,0,VALID,95.2979,VALID,0.101885,VALID,17.5773,VALID,113,VALID,0.777249,
2005-09-20, 02:44:00,VALID,919.222,VALID,0,VALID,95.5535,VALID,0.118866,VALID,17.5638,VALID,98,VALID,1.0032,
2005-09-20, 02:45:00,VALID,919.226,VALID,0,VALID,95.3462,VALID,0.101885,VALID,17.5965,VALID,93,VALID,1.0293,
2005-09-20, 02:46:00,VALID,919.223,VALID,0,VALID,94.6977,VALID,0.101885,VALID,17.6262,VALID,92,VALID,0.732617,
2005-09-20, 02:47:00,VALID,919.222,VALID,0,VALID,95.186,VALID,0.0679233,VALID,17.6038,VALID,92,VALID,0.930831,
2005-09-20, 02:48:00,VALID,919.21,VALID,0,VALID,95.4428,VALID,0.0509425,VALID,17.61,VALID,93,VALID,0.854567,
2005-09-20, 02:49:00,VALID,919.186,VALID,0,VALID,95.0346,VALID,0.0339617,VALID,17.6133,VALID,93,VALID,0.769259,
2005-09-20, 02:50:00,VALID,919.184,VALID,0,VALID,95.1236,VALID,0.118866,VALID,17.581,VALID,94,VALID,0.773037,
2005-09-20, 02:51:00,VALID,919.163,VALID,0,VALID,95.336,VALID,0.101885,VALID,17.5227,VALID,101,VALID,0.987165,
2005-09-20, 02:52:00,VALID,919.159,VALID,0,VALID,95.7633,VALID,0.101885,VALID,17.4872,VALID,115,VALID,1.11028,
2005-09-20, 02:53:00,VALID,919.166,VALID,0,VALID,95.7925,VALID,0.118866,VALID,17.4611,VALID,120,VALID,0.652616,
2005-09-20, 02:54:00,VALID,919.175,VALID,0,VALID,96.0545,VALID,0.101885,VALID,17.4452,VALID,120,VALID,0.720052,
2005-09-20, 02:55:00,VALID,919.189,VALID,0,VALID,96.1804,VALID,0.101885,VALID,17.4385,VALID,120,VALID,0.713299,
2005-09-20, 02:56:00,VALID,919.18,VALID,0,VALID,96.0863,VALID,0.0849042,VALID,17.4196,VALID,122,VALID,0.676599,
2005-09-20, 02:57:00,VALID,919.159,VALID,0,VALID,96.0977,VALID,0.118866,VALID,17.3873,VALID,134,VALID,0.665923,
2005-09-20, 02:58:00,VALID,919.139,VALID,0,VALID,96.6432,VALID,0.101885,VALID,17.3615,VALID,136,VALID,0.865513,
2005-09-20, 02:59:00,VALID,919.106,VALID,0,VALID,96.9141,VALID,0.101885,VALID,17.326,VALID,133,VALID,0.793679,
2005-09-20, 03:00:00,VALID,919.065,VALID,0,VALID,97.5283,VALID,0.101885,VALID,17.297,VALID,126,VALID,0.875,
2005-09-20, 03:01:00,VALID,919.046,VALID,0,VALID,97.6007,VALID,0.0339617,VALID,17.2981,VALID,116,VALID,0.837209,
2005-09-20, 03:02:00,VALID,919.044,VALID,0,VALID,97.6071,VALID,0.0169808,VALID,17.3015,VALID,123,VALID,0.853261,
2005-09-20, 03:03:00,VALID,919.05,VALID,0,VALID,97.6745,VALID,0.0169808,VALID,17.3149,VALID,125,VALID,0.73165,
2005-09-20, 03:04:00,VALID,919.044,VALID,0,VALID,97.6694,VALID,0.0169808,VALID,17.3142,VALID,125,VALID,0.668423,
2005-09-20, 03:05:00,VALID,919.057,VALID,0,VALID,97.6338,VALID,0,VALID,17.3338,VALID,124,VALID,0.573509,
2005-09-20, 03:06:00,VALID,919.052,VALID,0,VALID,97.4952,VALID,-0.0509425,VALID,17.3402,VALID,121,VALID,0.68423,
2005-09-20, 03:07:00,VALID,919.056,VALID,0,VALID,97.1061,VALID,0,VALID,17.3757,VALID,117,VALID,0.56468,
2005-09-20, 03:08:00,VALID,919.058,VALID,0,VALID,96.6025,VALID,-0.0169808,VALID,17.3467,VALID,117,VALID,0.470313,
2005-09-20, 03:09:01,VALID,919.067,VALID,0,VALID,95.9476,VALID,-0.0169808,VALID,17.266,VALID,99,VALID,0.581032,
2005-09-20, 03:10:00,VALID,919.06,VALID,0,VALID,95.9527,VALID,0,VALID,17.1595,VALID,85,VALID,0.52207,
2005-09-20, 03:11:00,VALID,919.053,VALID,0,VALID,95.968,VALID,0,VALID,17.0532,VALID,82,VALID,0.538175,
2005-09-20, 03:12:00,VALID,919.04,VALID,0,VALID,96.5339,VALID,0.0169808,VALID,16.934,VALID,78,VALID,0.632643,
2005-09-20, 03:13:00,VALID,919.044,VALID,0,VALID,98.2251,VALID,-0.0169808,VALID,16.9142,VALID,78,VALID,0.561285,
2005-09-20, 03:14:00,VALID,919.043,VALID,0,VALID,98.8329,VALID,-0.0169808,VALID,16.9628,VALID,78,VALID,0.59654,
2005-09-20, 03:15:01,VALID,919.046,VALID,0,VALID,98.8164,VALID,-0.0339617,VALID,17.0435,VALID,78,VALID,0.815739,
2005-09-20, 03:16:00,VALID,919.052,VALID,0,VALID,98.3001,VALID,0,VALID,17.1475,VALID,81,VALID,0.621528,
2005-09-20, 03:17:00,VALID,919.049,VALID,0,VALID,97.6681,VALID,0,VALID,17.2118,VALID,105,VALID,0.790968,
2005-09-20, 03:18:00,VALID,919.053,VALID,0,VALID,97.2917,VALID,0,VALID,17.2342,VALID,125,VALID,0.989583,
2005-09-20, 03:19:01,VALID,919.036,VALID,0,VALID,96.9675,VALID,0,VALID,17.2759,VALID,126,VALID,0.977257,
2005-09-20, 03:20:01,VALID,919.02,VALID,0,VALID,96.6343,VALID,0,VALID,17.3047,VALID,125,VALID,1.038,
2005-09-20, 03:21:01,VALID,919.008,VALID,0,VALID,95.9388,VALID,0,VALID,17.3953,VALID,115,VALID,1.09175,
2005-09-20, 03:22:00,VALID,918.981,VALID,0,VALID,94.8998,VALID,0,VALID,17.4919,VALID,104,VALID,1.18102,
2005-09-20, 03:23:01,VALID,918.971,VALID,0,VALID,94.2234,VALID,0,VALID,17.5955,VALID,102,VALID,1.22337,
2005-09-20, 03:24:00,VALID,918.972,VALID,0,VALID,93.4858,VALID,0,VALID,17.728,VALID,104,VALID,1.15538,
2005-09-20, 03:25:00,VALID,918.97,VALID,0,VALID,92.7165,VALID,0,VALID,17.8408,VALID,98,VALID,0.986914,
2005-09-20, 03:26:00,VALID,918.959,VALID,0,VALID,92.2384,VALID,0,VALID,17.9279,VALID,96,VALID,0.883814,
2005-09-20, 03:27:00,VALID,918.946,VALID,0,VALID,91.6382,VALID,0,VALID,17.9602,VALID,94,VALID,1.01962,
2005-09-20, 03:28:00,VALID,918.94,VALID,0,VALID,90.9948,VALID,-0.0339617,VALID,18.0315,VALID,89,VALID,0.982777,
2005-09-20, 03:29:01,VALID,918.929,VALID,0,VALID,90.5535,VALID,-0.0169808,VALID,18.096,VALID,98,VALID,0.949929,
2005-09-20, 03:30:00,VALID,918.916,VALID,0,VALID,90.3475,VALID,0,VALID,18.1376,VALID,101,VALID,1.01926,
2005-09-20, 03:31:00,VALID,918.91,VALID,0,VALID,90.2827,VALID,0,VALID,18.1535,VALID,102,VALID,0.882813,
2005-09-20, 03:32:00,VALID,918.908,VALID,0,VALID,90.2852,VALID,0,VALID,18.1403,VALID,103,VALID,0.902344,
2005-09-20, 03:33:00,VALID,918.92,VALID,0,VALID,90.4225,VALID,0,VALID,18.079,VALID,103,VALID,0.819404,
2005-09-20, 03:34:00,VALID,918.92,VALID,0,VALID,90.8422,VALID,0,VALID,17.9884,VALID,103,VALID,0.796317,